FW8937 Weather Reports


time (UTC)temp
F
wind
direction
speed
knots
gust
knots
rain 1hr
in
rain 24hr
in
rain mn
in
humidity
%
barometer
mb
20220812184614 79 86 5.2 11.3 0.00 0.00 0.00 41 1031.9
20220812184340 78 91 5.2 11.3 0.00 0.00 0.00 39 1031.9
20220812183835 79 114 5.2 11.3 0.00 0.00 0.00 37 1031.9
20220812183559 79 70 4.3 9.6 0.00 0.00 0.00 40 1031.9
20220812182819 78 61 6.1 11.3 0.00 0.00 0.00 39 1032.3
20220812182652 77 103 5.2 11.3 0.00 0.00 0.00 42 1032.0
20220812181538 77 75 5.2 12.2 0.00 0.00 0.00 39 1032.4
20220812181032 77 60 6.1 12.2 0.00 0.00 0.00 39 1032.3
20220812180757 76 109 4.3 10.4 0.00 0.00 0.00 42 1032.3
20220812180647 76 80 4.3 10.4 0.00 0.00 0.00 42 1032.3
20220812175513 76 66 5.2 10.4 0.00 0.00 0.00 43 1032.3
20220812175008 77 101 5.2 12.2 0.00 0.00 0.00 40 1032.3
20220812174502 78 57 5.2 12.2 0.00 0.00 0.00 40 1032.3
20220812174228 75 57 5.2 10.4 0.00 0.00 0.00 44 1032.4
20220812173450 75 67 4.3 10.4 0.00 0.00 0.00 41 1032.4
20220812172943 76 105 3.5 7.8 0.00 0.00 0.00 41 1032.5
20220812172439 75 111 3.5 7.8 0.00 0.00 0.00 44 1032.5
20220812171934 74 108 2.6 7.8 0.00 0.00 0.00 47 1032.5
20220812171426 74 86 4.3 9.6 0.00 0.00 0.00 42 1032.6
20220812170920 75 132 5.2 9.6 0.00 0.00 0.00 44 1032.6
20220812170644 72 109 5.2 8.7 0.00 0.00 0.00 45 1032.6
20220812165908 72 108 4.3 9.6 0.00 0.00 0.00 45 1032.8
20220812165401 73 0 4.3 9.6 0.00 0.00 0.00 43 1032.8
20220812164902 74 43 3.5 9.6 0.00 0.00 0.00 46 1032.8
20220812164856 74 135 3.5 8.7 0.00 0.00 0.00 43 1032.8
20220812164753 72 103 3.5 9.6 0.00 0.00 0.00 45 1032.9
20220812164240 73 167 4.3 9.6 0.00 0.00 0.00 47 1032.8
20220812162834 71 76 3.5 9.6 0.00 0.00 0.00 47 1032.8
20220812162326 72 94 4.3 9.6 0.00 0.00 0.00 45 1032.8
20220812162150 71 88 5.2 9.6 0.00 0.00 0.00 46 1032.8
20220812162051 71 115 3.5 8.7 0.00 0.00 0.00 48 1032.9
20220812161416 71 100 3.5 9.6 0.00 0.00 0.00 45 1032.9
20220812160302 71 154 3.5 7.8 0.00 0.00 0.00 48 1032.9
20220812160028 70 53 2.6 7.8 0.00 0.00 0.00 47 1032.9
20220812155250 70 89 2.6 8.7 0.00 0.00 0.00 49 1032.9
20220812154748 69 106 4.3 10.4 0.00 0.00 0.00 45 1033.0
20220812154744 70 56 3.5 8.7 0.00 0.00 0.00 46 1032.9
20220812154635 69 94 4.3 10.4 0.00 0.00 0.00 49 1033.0
20220812153458 69 111 2.6 7.0 0.00 0.00 0.00 48 1032.9
20220812152958 68 76 3.5 7.0 0.00 0.00 0.00 50 1032.9
20220812152454 68 75 3.5 7.0 0.00 0.00 0.00 48 1032.8
20220812151722 68 160 3.5 7.8 0.00 0.00 0.00 49 1032.9
20220812151500 67 104 4.3 8.7 0.00 0.00 0.00 49 1032.8
20220812151223 67 88 4.3 7.8 0.00 0.00 0.00 48 1032.9
20220812150840 66 70 3.5 7.8 0.00 0.00 0.00 49 1032.8
20220812150223 66 93 4.3 8.7 0.00 0.00 0.00 50 1032.8
20220812145456 65 144 3.5 9.6 0.00 0.00 0.00 50 1032.8
20220812144728 65 161 3.5 8.7 0.00 0.00 0.00 50 1032.6
20220812144723 65 84 3.5 9.6 0.00 0.00 0.00 51 1032.8
20220812143724 65 115 4.3 9.6 0.00 0.00 0.00 52 1032.6
20220812143225 63 137 3.5 9.6 0.00 0.00 0.00 54 1032.6
20220812143219 64 128 4.3 9.6 0.00 0.00 0.00 53 1032.6
20220812142218 64 105 3.5 8.7 0.00 0.00 0.00 55 1032.6
20220812141719 64 102 4.3 8.7 0.00 0.00 0.00 55 1032.5
20220812141226 63 115 3.5 7.0 0.00 0.00 0.00 54 1032.4
20220812141220 64 92 3.5 8.7 0.00 0.00 0.00 55 1032.5
20220812140219 63 131 4.3 7.8 0.00 0.00 0.00 53 1032.4
20220812135724 64 68 2.6 7.8 0.00 0.00 0.00 52 1032.3
20220812135720 64 86 3.5 7.8 0.00 0.00 0.00 53 1032.3
20220812134715 63 124 0.9 3.5 0.00 0.00 0.00 51 1032.1
20220812134221 61 101 0.9 2.6 0.00 0.00 0.00 53 1032.1
20220812134216 62 103 0.9 2.6 0.00 0.00 0.00 51 1032.3
20220812133212 61 101 1.7 3.5 0.00 0.00 0.00 54 1032.0
20220812132710 61 101 1.7 3.5 0.00 0.00 0.00 54 1032.0
20220812132211 61 95 1.7 3.5 0.00 0.00 0.00 54 1032.0
20220812131717 61 96 2.6 6.1 0.00 0.00 0.00 51 1032.0
20220812131713 61 122 2.6 6.1 0.00 0.00 0.00 53 1032.0
20220812130939 60 140 1.7 6.1 0.00 0.00 0.00 52 1032.0
20220812130830 60 111 1.7 3.5 0.00 0.00 0.00 52 1032.0
20220812125938 60 110 1.7 3.5 0.00 0.00 0.00 51 1031.9
20220812125442 59 110 1.7 5.2 0.00 0.00 0.00 51 1032.0
20220812125206 60 110 1.7 2.6 0.00 0.00 0.00 51 1031.9
20220812124206 59 109 1.7 6.1 0.00 0.00 0.00 51 1032.0
20220812123706 60 96 1.7 6.1 0.00 0.00 0.00 50 1032.0
20220812123207 60 96 2.6 5.2 0.00 0.00 0.00 49 1031.9
20220812122701 61 84 1.7 5.2 0.00 0.00 0.00 48 1031.9
20220812122154 61 47 2.6 6.1 0.00 0.00 0.00 47 1031.6
20220812121920 62 51 2.6 6.1 0.00 0.00 0.00 46 1031.6
20220812121643 63 326 2.6 7.8 0.00 0.00 0.00 45 1031.5
20220812120635 63 311 4.3 7.8 0.00 0.00 0.00 44 1031.5
20220812120359 62 280 6.1 8.7 0.00 0.00 0.00 45 1031.3
20220812115623 62 264 6.1 12.2 0.00 0.00 0.00 45 1031.3
20220812115353 62 252 7.0 12.2 0.00 0.00 0.00 45 1031.3
20220812114611 62 251 7.8 11.3 0.00 0.00 0.00 46 1031.3
20220812114438 62 263 7.8 11.3 0.00 0.00 0.00 46 1031.3
20220812114348 62 296 7.8 13.0 0.00 0.00 0.00 45 1031.3
20220812113055 62 290 8.7 13.0 0.00 0.00 0.00 45 1031.2
20220812113050 63 275 8.7 13.0 0.00 0.00 0.00 45 1031.2
20220812112042 62 237 8.7 15.6 0.00 0.00 0.00 45 1031.2
20220812111911 62 291 8.7 15.6 0.00 0.00 0.00 45 1031.3
20220812111815 62 281 8.7 13.9 0.00 0.00 0.00 45 1031.2
20220812110749 62 248 9.6 13.0 0.00 0.00 0.00 45 1031.1
20220812110624 63 310 9.6 13.9 0.00 0.00 0.00 45 1031.1
20220812105511 62 279 9.6 13.0 0.00 0.00 0.00 45 1031.1
20220812105005 63 289 9.6 13.9 0.00 0.00 0.00 45 1031.1
20220812104458 63 246 9.6 13.9 0.00 0.00 0.00 45 1031.1
20220812103954 63 263 9.6 14.8 0.00 0.00 0.00 44 1031.1
20220812103948 63 261 9.6 15.6 0.00 0.00 0.00 44 1031.1
20220812103211 63 291 9.6 15.6 0.00 0.00 0.00 44 1031.1
20220812102435 63 0 9.6 14.8 0.00 0.00 0.00 44 1030.9
20220812101929 63 265 10.4 14.8 0.00 0.00 0.00 44 1030.8
20220812101700 63 0 9.6 17.4 0.00 0.00 0.00 44 1030.8
20220812101201 63 238 9.6 17.4 0.00 0.00 0.00 43 1030.9
20220812101052 63 286 11.3 17.4 0.00 0.00 0.00 43 1030.9
20220812095926 64 235 10.4 17.4 0.00 0.00 0.00 43 1030.9
20220812095435 64 288 9.6 13.9 0.00 0.00 0.00 42 1030.9
20220812095425 64 289 9.6 15.6 0.00 0.00 0.00 43 1030.9
20220812094926 64 252 9.6 14.8 0.00 0.00 0.00 42 1030.9
20220812093926 64 234 9.6 13.9 0.00 0.00 0.00 42 1030.9
20220812093656 63 259 9.6 13.0 0.00 0.00 0.00 43 1031.1
20220812093156 64 305 8.7 13.0 0.00 0.00 0.00 43 1031.1
20220812092657 63 288 8.7 13.0 0.00 0.00 0.00 43 1030.9
20220812092157 64 292 8.7 12.2 0.00 0.00 0.00 42 1030.9
20220812092048 63 275 8.7 12.2 0.00 0.00 0.00 42 1030.9
20220812091157 63 264 8.7 12.2 0.00 0.00 0.00 43 1031.1
20220812090656 63 262 7.8 12.2 0.00 0.00 0.00 43 1031.1
20220812085926 64 279 7.8 11.3 0.00 0.00 0.00 43 1031.1
20220812085427 63 286 7.0 10.4 0.00 0.00 0.00 43 1031.1
20220812084921 63 286 7.0 10.4 0.00 0.00 0.00 43 1031.1
20220812084644 63 275 7.8 10.4 0.00 0.00 0.00 44 1031.1
20220812084147 63 263 7.8 11.3 0.00 0.00 0.00 46 1031.1
20220812083804 62 260 6.1 9.6 0.00 0.00 0.00 48 1030.8
20220812083657 62 299 7.0 11.3 0.00 0.00 0.00 48 1030.9
20220812082420 62 255 5.2 7.8 0.00 0.00 0.00 48 1030.7
20220812082415 62 294 5.2 8.7 0.00 0.00 0.00 48 1030.7
20220812081414 62 281 5.2 7.8 0.00 0.00 0.00 48 1030.7
20220812080916 62 286 4.3 7.8 0.00 0.00 0.00 47 1030.7
20220812080412 62 263 3.5 6.1 0.00 0.00 0.00 47 1030.7
20220812075411 62 296 4.3 7.8 0.00 0.00 0.00 46 1030.8
20220812074913 62 298 3.5 7.8 0.00 0.00 0.00 46 1030.8
20220812074412 62 284 4.3 7.8 0.00 0.00 0.00 46 1030.8
20220812073912 62 285 4.3 8.7 0.00 0.00 0.00 45 1030.7
20220812073643 63 301 5.2 9.6 0.00 0.00 0.00 45 1030.7
20220812072913 63 279 6.1 9.6 0.00 0.00 0.00 44 1030.7
20220812072648 63 261 6.1 8.7 0.00 0.00 0.00 44 1030.7
20220812072412 63 278 6.1 9.6 0.00 0.00 0.00 44 1030.7
20220812072039 63 0 6.1 8.7 0.00 0.00 0.00 44 1030.7
20220812071408 63 283 6.1 9.6 0.00 0.00 0.00 43 1030.8
20220812070402 63 264 6.1 9.6 0.00 0.00 0.00 43 1030.8
20220812070357 64 275 5.2 8.7 0.00 0.00 0.00 43 1030.8
20220812065849 64 312 5.2 9.6 0.00 0.00 0.00 42 1030.8
20220812065114 64 259 6.1 9.6 0.00 0.00 0.00 42 1030.9
20220812064336 64 288 7.0 9.6 0.00 0.00 0.00 42 1030.9
20220812063837 64 282 7.0 9.6 0.00 0.00 0.00 43 1030.8
20220812063336 64 277 6.1 9.6 0.00 0.00 0.00 42 1030.9
20220812063106 65 280 5.2 9.6 0.00 0.00 0.00 42 1031.1
20220812062607 65 336 6.1 9.6 0.00 0.00 0.00 42 1031.1
20220812061836 65 295 7.0 10.4 0.00 0.00 0.00 42 1031.1
20220812061735 65 279 8.7 13.9 0.00 0.00 0.00 41 1030.9
20220812061622 65 0 7.8 11.3 0.00 0.00 0.00 41 1031.1
20220812060953 66 243 8.7 13.9 0.00 0.00 0.00 41 1030.9
20220812055835 66 0 9.6 13.9 0.00 0.00 0.00 41 1030.8
20220812055335 65 324 9.6 13.9 0.00 0.00 0.00 41 1030.8
20220812055225 66 278 8.7 13.0 0.00 0.00 0.00 40 1030.9
20220812055114 66 269 8.7 13.0 0.00 0.00 0.00 41 1030.9
20220812054455 66 277 8.7 12.2 0.00 0.00 0.00 40 1030.9
20220812053330 66 276 8.7 13.0 0.00 0.00 0.00 40 1030.9
20220812053323 66 0 9.6 13.0 0.00 0.00 0.00 40 1030.8
20220812052321 66 254 9.6 13.0 0.00 0.00 0.00 40 1030.9
20220812051806 66 265 8.7 12.2 0.00 0.00 0.00 40 1030.8
20220812051301 66 281 8.7 13.0 0.00 0.00 0.00 40 1030.8
20220812050754 66 259 8.7 13.0 0.00 0.00 0.00 40 1030.9
20220812050248 66 284 8.7 12.2 0.00 0.00 0.00 40 1030.9
20220812045749 66 263 7.8 11.3 0.00 0.00 0.00 41 1030.9
20220812045742 66 245 8.7 13.0 0.00 0.00 0.00 41 1030.9
20220812045644 66 265 8.7 13.0 0.00 0.00 0.00 41 1030.9
20220812044454 66 281 7.8 14.8 0.00 0.00 0.00 41 1030.9
20220812043719 66 287 8.7 14.8 0.00 0.00 0.00 40 1030.9
20220812043439 66 0 8.7 13.9 0.00 0.00 0.00 41 1031.1
20220812043313 66 265 8.7 13.9 0.00 0.00 0.00 40 1030.9
20220812042200 66 263 9.6 13.9 0.00 0.00 0.00 41 1031.1
20220812041657 66 240 9.6 13.9 0.00 0.00 0.00 42 1031.1
20220812041430 66 292 8.7 13.0 0.00 0.00 0.00 43 1031.1
20220812041358 66 256 8.7 14.8 0.00 0.00 0.00 42 1031.1
20220812041151 66 236 9.6 14.8 0.00 0.00 0.00 42 1031.2
20220812035903 67 296 9.6 14.8 0.00 0.00 0.00 43 1031.1
20220812035124 66 286 9.6 14.8 0.00 0.00 0.00 43 1031.2
20220812034618 66 264 7.8 13.9 0.00 0.00 0.00 45 1031.1
20220812034344 66 263 5.2 9.6 0.00 0.00 0.00 46 1031.1
20220812033606 65 286 4.3 6.1 0.00 0.00 0.00 46 1031.1
20220812033432 65 264 3.5 5.2 0.00 0.00 0.00 47 1030.9
20220812033336 65 290 2.6 6.1 0.00 0.00 0.00 48 1030.9
20220812032710 67 24 1.7 3.5 0.00 0.00 0.00 47 1030.8
20220812032444 65 245 1.7 6.1 0.00 0.00 0.00 48 1030.8
20220812031035 67 258 1.7 4.3 0.00 0.00 0.00 46 1030.8
20220812030800 66 213 1.7 4.3 0.00 0.00 0.00 47 1030.8
20220812030023 66 155 3.5 7.8 0.00 0.00 0.00 48 1030.8
20220812025749 67 219 5.2 9.6 0.00 0.00 0.00 47 1030.7
20220812025017 67 261 6.1 9.6 0.00 0.00 0.00 46 1030.6
20220812024506 67 257 6.1 9.6 0.00 0.00 0.00 46 1030.6
20220812024236 68 277 6.1 8.7 0.00 0.00 0.00 46 1030.7
20220812023454 67 287 6.1 8.7 0.00 0.00 0.00 46 1030.6
20220812022947 67 0 4.3 7.8 0.00 0.00 0.00 47 1030.6
20220812022442 67 303 4.3 7.0 0.00 0.00 0.00 47 1030.6
20220812022206 67 280 5.2 7.0 0.00 0.00 0.00 47 1030.4
20220812022055 68 262 4.3 7.0 0.00 0.00 0.00 46 1030.3
20220812021832 69 294 3.5 6.1 0.00 0.00 0.00 45 1030.3
20220812020927 68 288 4.3 6.1 0.00 0.00 0.00 45 1030.2
20220812020543 69 293 3.5 6.1 0.00 0.00 0.00 45 1030.4
20220812015424 69 291 3.5 5.2 0.00 0.00 0.00 44 1030.3
20220812015153 70 291 3.5 5.2 0.00 0.00 0.00 44 1030.3
20220812014424 70 313 2.6 4.3 0.00 0.00 0.00 44 1030.4
20220812013923 71 344 2.6 4.3 0.00 0.00 0.00 43 1030.3
20220812013153 71 344 2.6 3.5 0.00 0.00 0.00 40 1030.3
20220812012423 71 344 0.9 3.5 0.00 0.00 0.00 39 1030.3
20220812011924 71 53 0.0 1.7 0.00 0.00 0.00 40 1030.0
20220812011655 72 53 0.9 1.7 0.00 0.00 0.00 37 1030.2
20220812011151 72 53 0.9 1.7 0.00 0.00 0.00 36 1030.2
20220812010653 72 53 0.9 2.6 0.00 0.00 0.00 35 1030.3
20220812005923 72 53 0.9 3.5 0.00 0.00 0.00 38 1030.4
20220812005420 73 53 1.7 3.5 0.00 0.00 0.00 35 1030.3
20220812005152 73 54 2.6 5.2 0.00 0.00 0.00 38 1030.4
20220812004646 73 44 2.6 5.2 0.00 0.00 0.00 35 1030.4
20220812003914 74 52 2.6 7.8 0.00 0.00 0.00 34 1030.4
20220812003414 75 65 3.5 8.7 0.00 0.00 0.00 32 1030.4
20220812002915 75 96 3.5 8.7 0.00 0.00 0.00 35 1030.3
20220812002415 75 47 2.6 7.8 0.00 0.00 0.00 33 1030.3
20220812001915 75 65 2.6 7.8 0.00 0.00 0.00 34 1030.3
20220812001646 76 70 2.6 7.8 0.00 0.00 0.00 34 1030.6
20220812001147 76 69 3.5 7.0 0.00 0.00 0.00 35 1030.4
20220812000417 76 103 3.5 7.8 0.00 0.00 0.00 34 1030.6
20220812000144 76 71 3.5 8.7 0.00 0.00 0.00 38 1030.4
20220811235410 76 84 2.6 8.7 0.00 0.00 0.00 38 1030.6
20220811234912 76 98 3.5 8.7 0.00 0.00 0.00 37 1030.6
20220811234643 76 99 3.5 7.0 0.00 0.00 0.00 36 1030.4
20220811233914 77 61 3.5 8.7 0.00 0.00 0.00 35 1030.7
20220811233909 76 88 3.5 8.7 0.00 0.00 0.00 36 1030.7
20220811232916 76 62 3.5 7.0 0.00 0.00 0.00 36 1030.9
20220811232910 76 71 2.6 7.8 0.00 0.00 0.00 38 1030.8
20220811232528 76 65 3.5 7.0 0.00 0.00 0.00 35 1030.8
20220811231409 76 53 2.6 7.8 0.00 0.00 0.00 36 1030.9
20220811231405 76 79 3.5 7.0 0.00 0.00 0.00 35 1030.9
20220811231026 76 81 3.5 9.6 0.00 0.00 0.00 36 1030.9
20220811230357 76 103 3.5 9.6 0.00 0.00 0.00 34 1030.9
20220811225347 76 78 3.5 8.7 0.00 0.00 0.00 35 1030.9
20220811225111 77 113 4.3 8.7 0.00 0.00 0.00 38 1030.9
20220811224335 77 111 4.3 10.4 0.00 0.00 0.00 35 1030.9
20220811223828 77 70 4.3 10.4 0.00 0.00 0.00 35 1030.9
20220811223324 77 92 4.3 8.7 0.00 0.00 0.00 35 1030.8
20220811223316 78 54 4.3 8.7 0.00 0.00 0.00 34 1030.8
20220811222919 78 0 4.3 7.8 0.00 0.00 0.00 32 1030.8
20220811222306 78 109 4.3 8.7 0.00 0.00 0.00 33 1030.8
20220811221757 78 88 4.3 10.4 0.00 0.00 0.00 31 1030.8
20220811221402 78 77 4.3 10.4 0.00 0.00 0.00 34 1030.8
20220811220247 78 80 4.3 10.4 0.00 0.00 0.00 36 1030.8
20220811215741 79 102 5.2 9.6 0.00 0.00 0.00 31 1030.9
20220811215235 81 61 7.0 11.3 0.00 0.00 0.00 32 1030.9
20220811214731 81 0 7.0 11.3 0.00 0.00 0.00 30 1031.1
20220811214725 81 42 7.0 13.0 0.00 0.00 0.00 30 1031.1
20220811213717 81 0 6.1 13.0 0.00 0.00 0.00 32 1031.1
20220811213211 81 0 5.2 13.0 0.00 0.00 0.00 29 1031.1
20220811212706 81 71 5.2 13.0 0.00 0.00 0.00 32 1031.1
20220811212200 82 86 5.2 12.2 0.00 0.00 0.00 30 1031.2
20220811211925 81 53 4.3 9.6 0.00 0.00 0.00 30 1031.3
20220811211419 84 0 5.2 11.3 0.00 0.00 0.00 31 1031.3
20220811210642 84 85 5.2 11.3 0.00 0.00 0.00 28 1031.3
20220811210636 83 0 5.2 13.0 0.00 0.00 0.00 30 1031.2
20220811205630 83 77 5.2 13.0 0.00 0.00 0.00 31 1031.3
20220811205123 83 64 6.1 13.0 0.00 0.00 0.00 29 1031.3
20220811204853 83 71 6.1 13.0 0.00 0.00 0.00 27 1031.3
20220811204615 82 68 6.1 13.0 0.00 0.00 0.00 29 1031.5
20220811203835 82 80 6.1 13.0 0.00 0.00 0.00 30 1031.5
20220811203059 82 59 6.1 13.0 0.00 0.00 0.00 29 1031.5
20220811202553 82 0 7.0 13.0 0.00 0.00 0.00 29 1031.6
20220811202421 81 80 5.2 13.0 0.00 0.00 0.00 30 1031.6
20220811202326 81 91 6.1 13.0 0.00 0.00 0.00 32 1031.9
20220811201036 82 121 6.1 12.2 0.00 0.00 0.00 29 1031.7
20220811200759 83 115 6.1 12.2 0.00 0.00 0.00 30 1031.9
20220811200254 82 127 6.1 12.2 0.00 0.00 0.00 30 1031.9
20220811195520 82 103 6.1 11.3 0.00 0.00 0.00 33 1032.0
20220811195513 81 0 5.2 11.3 0.00 0.00 0.00 33 1032.3
20220811194512 83 0 5.2 13.0 0.00 0.00 0.00 29 1032.1
20220811194243 83 0 7.0 13.0 0.00 0.00 0.00 30 1032.0
20220811193512 82 70 7.0 13.0 0.00 0.00 0.00 32 1032.1
20220811193011 82 111 5.2 13.0 0.00 0.00 0.00 31 1032.1
20220811192512 83 109 5.2 12.2 0.00 0.00 0.00 33 1032.3
20220811192249 83 74 5.2 13.0 0.00 0.00 0.00 32 1032.3
20220811192011 83 80 6.1 13.0 0.00 0.00 0.00 32 1032.3
20220811191244 82 113 5.2 12.2 0.00 0.00 0.00 33 1032.1
20220811190512 84 59 7.0 13.9 0.00 0.00 0.00 29 1032.1
20220811190013 83 91 7.8 13.9 0.00 0.00 0.00 30 1032.1
20220811185511 84 89 6.1 13.0 0.00 0.00 0.00 29 1032.3